[[{"header":{"parameterUnit":"m.s-1","parameterCategory":1,"la1":30.2991,"la2":30.254,"lo1":-89.0895,"lo2":-89.0444,"dy":0.0017,"dx":0.0017,"nx":28,"ny":28,"refTime":"2023-10-15T21:00:00:Z","depth":0,"parameterNumber":2,"parameterNumberName":"U-component_of_WINDS"},"data":[0,0,0,0,0,0,0,0,0,0,0,0,0,0,0,0,0,0,0,0,0,0,0,0,0,0,0,0,0,0,0,0,0,0,0,0,0,0,0,0,0,0,0,0,0,0,0,0,0,0,0,0,0,0,0,0,0,0,-2.0803,-2.0803,0,-2.08,-2.0799,-2.0799,-2.0746,-2.0745,-2.0743,-2.0742,-2.0738,-2.0739,-2.074,0,0,0,0,0,0,0,0,0,0,0,0,0,-2.0765,-2.0766,-2.0803,-2.0803,-2.0803,-2.08,-2.0799,-2.0799,-2.0746,-2.0745,-2.0743,-2.0742,-2.0737,-2.0739,-2.074,0,0,0,0,0,0,0,0,0,0,0,0,0,-2.0773,-2.0766,-2.0803,-2.0776,-2.0774,-2.08,-2.0799,-2.0799,-2.0747,-2.0745,-2.0743,-2.0741,-2.0737,-2.0739,-2.074,-2.0792,0,0,-2.0746,-2.0746,0,0,0,0,0,0,0,0,-2.0773,-2.0775,-2.078,-2.0778,-2.0776,-2.0771,-2.0784,-2.0797,-2.0747,-2.0757,-2.0742,-2.074,-2.0751,-2.0751,-2.0755,-2.0791,-2.0791,-2.0746,-2.0747,-2.0748,-2.0748,0,0,0,0,0,0,0,-2.0772,-2.0775,-2.0802,-2.0781,-2.0778,-2.0764,-2.0763,-2.0786,-2.0765,-2.0756,-2.0752,-2.0752,-2.0749,-2.0753,-2.0754,-2.0791,-2.0746,-2.0747,-2.0748,-2.0749,-2.087,-2.0872,0,0,0,0,0,0,-2.0776,-2.0775,-2.0802,-2.0802,-2.0769,-2.0767,-2.0766,-2.0775,-2.0765,-2.0761,-2.0754,-2.075,-2.0751,-2.0752,-2.0754,-2.0813,-2.0748,-2.0749,-2.075,-2.0868,-2.087,-2.0873,0,0,0,0,0,0,-2.0775,-2.0779,-2.0802,-2.0787,-2.0789,-2.077,-2.078,-2.0776,-2.078,-2.0763,-2.0759,-2.0763,-2.075,-2.0751,-2.0783,-2.0812,-2.075,-2.0752,-2.0865,-2.0868,-2.0871,-2.0933,0,0,0,0,0,0,-2.0774,-2.0779,-2.0798,-2.0788,-2.079,-2.0831,-2.0782,-2.0777,-2.0783,-2.0778,-2.077,-2.0767,-2.0748,-2.078,-2.0784,-2.0814,-2.0753,-2.0862,-2.0867,-2.087,-2.0928,-2.0938,-2.0946,0,0,0,0,0,-2.0773,-2.0815,-2.0799,-2.0803,-2.0814,-2.0833,-2.0834,-2.0812,-2.0786,-2.0805,-2.0794,-2.0767,-2.0809,-2.0784,-2.0788,-2.0818,-2.086,-2.0865,-2.087,-2.0924,-2.0936,-2.0946,0,0,0,0,0,0,-2.0829,-2.0813,-2.0795,-2.0836,-2.0836,-2.0824,-2.0847,-2.0825,-2.0833,-2.0827,-2.0799,-2.0798,-2.0834,-2.0829,-2.0802,-2.0868,-2.083,-2.0836,-2.0869,-2.088,-2.0889,-2.089,-2.0754,0,0,0,0,0,-2.0846,-2.0863,-2.0848,-2.0885,-2.0886,-2.0867,-2.0875,-2.0857,-2.0857,-2.0857,-2.0848,-2.0849,-2.0861,-2.0871,-2.0882,-2.0927,-2.0925,-2.095,-2.0959,-2.0966,-2.0972,-2.0996,-2.1007,-2.0889,-2.0889,-2.0889,0,0,-2.0881,-2.0875,-2.0887,-2.0896,-2.0895,-2.0913,-2.0868,-2.0889,-2.0902,-2.086,-2.0889,-2.0883,-2.0881,-2.092,-2.0936,-2.0917,-2.1004,-2.0973,-2.0979,-2.098,-2.1002,-2.1013,-2.1023,-2.0892,-2.0891,-2.0891,0,0,-2.0955,-2.0952,-2.0982,-2.0982,-2.098,-2.0967,-2.0974,-2.0966,-2.096,-2.0989,-2.0958,-2.0973,-2.0996,-2.0996,-2.0999,-2.1074,-2.105,-2.1078,-2.1126,-2.1149,-2.1159,-2.1167,-2.1194,-2.1203,-2.1084,-2.1084,-2.1084,0,-2.0999,-2.1025,-2.1001,-2.1024,-2.1029,-2.0992,-2.1023,-2.1023,-2.1025,-2.103,-2.1008,-2.1036,-2.1033,-2.1071,-2.109,-2.1093,-2.1101,-2.1079,-2.1159,-2.1167,-2.1174,-2.12,-2.121,-2.1088,-2.1087,-2.1087,-2.1087,0,-2.1079,-2.1098,-2.1123,-2.1126,-2.1134,-2.1161,-2.1141,-2.1152,-2.1134,-2.1124,-2.1154,-2.1148,-2.1157,-2.1165,-2.1148,-2.1201,-2.119,-2.1164,-2.1126,-2.119,-2.1213,-2.1222,-2.1093,-2.1091,-2.109,-2.109,0,0,-2.1187,-2.1177,-2.1187,-2.1188,-2.1184,-2.1198,-2.1223,-2.1233,-2.1243,-2.1245,-2.1266,-2.1287,-2.1263,-2.1267,-2.125,-2.1271,-2.133,-2.1242,-2.1242,-2.1259,-2.1389,-2.1408,-2.142,-2.1314,-2.1316,-2.1317,-2.1389,0,-2.1258,-2.1302,-2.1281,-2.1326,-2.1343,-2.1309,-2.1331,-2.1331,-2.1322,-2.1335,-2.1325,-2.134,-2.1308,-2.131,-2.1329,-2.1319,-2.1356,-2.1314,-2.1333,-2.1334,-2.1335,-2.1432,-2.1452,-2.152,-2.1398,-2.14,-2.1401,0,-2.1347,-2.1354,-2.1401,-2.1394,-2.1401,-2.1421,-2.1428,-2.1442,-2.1441,-2.1433,-2.1437,-2.1415,-2.144,-2.1402,-2.1436,-2.1407,-2.1414,-2.141,-2.1413,-2.1413,-2.1371,-2.1436,-2.1542,-2.1552,-2.1415,-2.1414,-2.1413,0,-2.1421,-2.1443,-2.1474,-2.1476,-2.1468,-2.1483,-2.1481,-2.1478,-2.1485,-2.1492,-2.1496,-2.1505,-2.1511,-2.1518,-2.1499,-2.1473,-2.1536,-2.1496,-2.153,-2.153,-2.1544,-2.1544,-2.1653,-2.1549,-2.1549,-2.1549,-2.1548,0,-2.1503,-2.1533,-2.1507,-2.1526,-2.156,-2.1535,-2.1569,-2.1563,-2.1561,-2.1578,-2.1549,-2.1566,-2.154,-2.1554,-2.1539,-2.157,-2.1572,-2.1566,-2.1562,-2.1569,-2.157,-2.1573,-2.1568,-2.1551,-2.1551,-2.155,-2.155,0,-2.1592,-2.1575,-2.1607,-2.1597,-2.1596,-2.1621,-2.1612,-2.163,-2.1619,-2.1641,-2.1645,-2.1628,-2.1644,-2.1626,-2.164,-2.163,-2.1671,-2.166,-2.1672,-2.1668,-2.1703,-2.17,-2.1818,-2.1832,-2.172,-2.1721,-2.1722,0,-2.1645,-2.1667,-2.166,-2.167,-2.167,-2.1686,-2.1693,-2.167,-2.1679,-2.168,-2.1698,-2.1711,-2.172,-2.1747,-2.1735,-2.1746,-2.1735,-2.1776,-2.1736,-2.1743,-2.1736,-2.1734,-2.1737,-2.1784,-2.1785,-2.1786,-2.1787,0,-2.1741,-2.1732,-2.1743,-2.1753,-2.1763,-2.1769,-2.1772,-2.1782,-2.1758,-2.177,-2.1786,-2.1793,-2.1808,-2.1821,-2.1829,-2.1826,-2.1803,-2.1799,-2.1808,-2.1815,-2.1821,-2.1818,-2.1693,-2.1797,-2.1796,-2.1795,-2.1794,-2.1794,-2.1813,-2.1832,-2.183,-2.1844,-2.1845,-2.1849,-2.1865,-2.1857,-2.187,-2.188,-2.1866,-2.1885,-2.1884,-2.1892,-2.1892,-2.1907,-2.189,-2.1902,-2.1905,-2.1908,-2.1914,-2.1819,-2.1909,-2.1908,-2.1908,-2.1908,-2.1908,0,-2.1908,-2.1905,-2.1918,-2.1925,-2.1936,-2.1914,-2.1917,-2.1928,-2.1946,-2.1947,-2.1957,-2.1975,-2.1988,-2.1978,-2.1989,-2.2003,-2.1993,-2.2007,-2.2006,-2.2006,-2.1929,-2.192,-2.2015,-2.2015,-2.2015,-2.2015,-2.2015,-2.2015,-2.1958,-2.1989,-2.198,-2.201,-2.2007,-2.2026,-2.203,-2.2034,-2.2035,-2.2057,-2.2068,-2.2061,-2.2058,-2.2069,-2.208,-2.2077,-2.2082,-2.21,-2.2093,-2.2022,-2.2011,-2.2001,-2.1993,-2.2102,-2.2102,-2.2169,-2.2169,-2.217]},{"header":{"parameterUnit":"m.s-1","parameterCategory":1,"la1":30.2991,"la2":30.254,"lo1":-89.0895,"lo2":-89.0444,"dy":0.0017,"dx":0.0017,"nx":28,"ny":28,"refTime":"2023-10-15T21:00:00:Z","depth":0,"parameterNumber":3,"parameterNumberName":"V-component_of_WINDS"},"data":[0,0,0,0,0,0,0,0,0,0,0,0,0,0,0,0,0,0,0,0,0,0,0,0,0,0,0,0,0,0,0,0,0,0,0,0,0,0,0,0,0,0,0,0,0,0,0,0,0,0,0,0,0,0,0,0,0,0,-2.6003,-2.6004,0,-2.6082,-2.6083,-2.6084,-2.6073,-2.6072,-2.6071,-2.607,-2.615,-2.6153,-2.6156,0,0,0,0,0,0,0,0,0,0,0,0,0,-2.5841,-2.5844,-2.6003,-2.6004,-2.6005,-2.6082,-2.6083,-2.6084,-2.6074,-2.6072,-2.607,-2.6069,-2.6148,-2.6152,-2.6156,0,0,0,0,0,0,0,0,0,0,0,0,0,-2.5915,-2.5845,-2.6002,-2.6009,-2.601,-2.6082,-2.6083,-2.6084,-2.6074,-2.6072,-2.607,-2.6068,-2.6147,-2.6152,-2.6157,-2.6227,0,0,-2.6172,-2.6174,0,0,0,0,0,0,0,0,-2.5911,-2.5921,-2.6007,-2.6008,-2.601,-2.6066,-2.6055,-2.6132,-2.6074,-2.605,-2.607,-2.6067,-2.6123,-2.613,-2.6149,-2.6231,-2.6234,-2.6173,-2.6176,-2.6178,-2.6179,0,0,0,0,0,0,0,-2.5906,-2.5917,-2.6034,-2.6008,-2.601,-2.6007,-2.6016,-2.607,-2.6096,-2.6052,-2.6051,-2.6061,-2.6124,-2.6144,-2.6151,-2.6235,-2.6173,-2.6177,-2.618,-2.6182,-2.6378,-2.638,0,0,0,0,0,0,-2.5899,-2.5913,-2.6031,-2.6036,-2.5955,-2.6012,-2.6021,-2.605,-2.6096,-2.6101,-2.6062,-2.606,-2.6137,-2.6145,-2.6154,-2.6239,-2.6178,-2.6183,-2.6185,-2.6376,-2.6379,-2.6381,0,0,0,0,0,0,-2.5896,-2.591,-2.6028,-2.5975,-2.599,-2.6017,-2.6049,-2.6052,-2.6073,-2.6104,-2.6108,-2.6079,-2.6136,-2.6147,-2.6209,-2.6242,-2.6185,-2.6189,-2.6374,-2.6377,-2.638,-2.641,0,0,0,0,0,0,-2.5891,-2.5909,-2.5936,-2.5975,-2.5992,-2.6083,-2.6051,-2.6055,-2.6082,-2.608,-2.612,-2.6125,-2.6135,-2.6202,-2.6214,-2.6248,-2.6193,-2.6371,-2.6375,-2.6379,-2.6407,-2.6414,-2.6421,0,0,0,0,0,-2.5885,-2.5941,-2.5937,-2.5951,-2.6027,-2.6085,-2.6094,-2.6105,-2.6085,-2.6112,-2.6132,-2.6124,-2.6236,-2.6208,-2.6222,-2.6258,-2.6369,-2.6374,-2.6379,-2.6403,-2.6413,-2.6421,0,0,0,0,0,0,-2.5904,-2.5946,-2.5943,-2.6012,-2.6045,-2.6083,-2.6118,-2.6114,-2.6153,-2.6149,-2.616,-2.6169,-2.6232,-2.6251,-2.6219,-2.6328,-2.63,-2.6308,-2.6314,-2.6323,-2.633,-2.6325,-2.6197,0,0,0,0,0,-2.5916,-2.596,-2.5994,-2.6052,-2.6069,-2.609,-2.6116,-2.6121,-2.6155,-2.6169,-2.6193,-2.6226,-2.6269,-2.6296,-2.6337,-2.6409,-2.6418,-2.644,-2.6447,-2.6453,-2.646,-2.65,-2.6511,-2.6397,-2.6397,-2.6397,0,0,-2.5942,-2.597,-2.5997,-2.6057,-2.6083,-2.6127,-2.6102,-2.615,-2.6184,-2.6176,-2.6237,-2.6255,-2.6293,-2.636,-2.6391,-2.6378,-2.6493,-2.6459,-2.6464,-2.6468,-2.6506,-2.6517,-2.6526,-2.6401,-2.64,-2.64,0,0,-2.6012,-2.6037,-2.6089,-2.6116,-2.6155,-2.6169,-2.6182,-2.622,-2.6232,-2.6293,-2.6289,-2.6328,-2.6401,-2.6428,-2.6452,-2.6532,-2.6527,-2.6545,-2.6583,-2.6621,-2.663,-2.6638,-2.6668,-2.6678,-2.6551,-2.6552,-2.6552,0,-2.6039,-2.6106,-2.6116,-2.6165,-2.6192,-2.6187,-2.624,-2.6265,-2.6315,-2.6334,-2.6318,-2.641,-2.6435,-2.6509,-2.6529,-2.6547,-2.6562,-2.6541,-2.6628,-2.6636,-2.6644,-2.6672,-2.6683,-2.6554,-2.6553,-2.6553,-2.6553,0,-2.6138,-2.6185,-2.6222,-2.6272,-2.6302,-2.6353,-2.637,-2.64,-2.6402,-2.6417,-2.648,-2.6509,-2.6556,-2.6574,-2.6577,-2.6649,-2.6639,-2.6626,-2.6598,-2.6657,-2.6684,-2.6694,-2.6557,-2.6556,-2.6555,-2.6555,0,0,-2.6222,-2.6277,-2.6291,-2.6314,-2.6357,-2.6393,-2.6443,-2.649,-2.6515,-2.655,-2.6593,-2.6655,-2.6643,-2.6669,-2.6675,-2.6708,-2.6771,-2.6691,-2.6692,-2.6706,-2.6853,-2.6864,-2.6876,-2.6767,-2.6769,-2.6771,-2.6851,0,-2.6297,-2.6387,-2.6397,-2.6477,-2.6521,-2.6517,-2.656,-2.6591,-2.6607,-2.6646,-2.6663,-2.6707,-2.6688,-2.6704,-2.6737,-2.6757,-2.6801,-2.6751,-2.6807,-2.6809,-2.68,-2.689,-2.6902,-2.6976,-2.6861,-2.6863,-2.6864,0,-2.6397,-2.6436,-2.652,-2.6558,-2.6576,-2.6616,-2.6659,-2.6697,-2.6732,-2.6741,-2.6771,-2.6772,-2.6823,-2.6792,-2.6864,-2.6829,-2.6853,-2.6866,-2.6869,-2.6876,-2.6841,-2.69,-2.6999,-2.7011,-2.688,-2.6879,-2.6878,0,-2.6452,-2.6525,-2.6585,-2.6604,-2.6649,-2.6677,-2.6697,-2.673,-2.6758,-2.6795,-2.6813,-2.6856,-2.688,-2.6914,-2.6926,-2.6902,-2.6998,-2.6967,-2.7007,-2.7007,-2.7028,-2.7027,-2.7133,-2.7041,-2.7041,-2.7041,-2.7041,0,-2.6535,-2.6587,-2.661,-2.6647,-2.6705,-2.6716,-2.6773,-2.6792,-2.6821,-2.6862,-2.686,-2.6898,-2.6912,-2.6952,-2.6962,-2.702,-2.7031,-2.704,-2.7042,-2.7041,-2.704,-2.7057,-2.7053,-2.7044,-2.7043,-2.7043,-2.7042,0,-2.6607,-2.6624,-2.6689,-2.6727,-2.6737,-2.6779,-2.681,-2.6846,-2.6861,-2.6912,-2.6925,-2.6948,-2.6996,-2.7011,-2.7068,-2.7075,-2.7143,-2.714,-2.7132,-2.7132,-2.7171,-2.7168,-2.7294,-2.7311,-2.7207,-2.7207,-2.7208,0,-2.6659,-2.6699,-2.6741,-2.6769,-2.679,-2.6834,-2.6862,-2.6874,-2.6903,-2.6946,-2.6977,-2.7023,-2.7062,-2.7137,-2.716,-2.7203,-2.7202,-2.7243,-2.7209,-2.7206,-2.7204,-2.7202,-2.7206,-2.725,-2.7251,-2.7252,-2.7253,0,-2.6752,-2.6758,-2.6799,-2.6843,-2.6877,-2.6912,-2.6946,-2.6968,-2.6985,-2.7018,-2.7067,-2.7096,-2.7155,-2.7202,-2.7246,-2.7266,-2.7263,-2.7263,-2.7275,-2.7274,-2.7268,-2.7273,-2.7151,-2.726,-2.726,-2.7259,-2.7259,-2.7258,-2.6816,-2.6852,-2.6887,-2.6933,-2.6959,-2.6991,-2.7027,-2.7047,-2.7087,-2.7136,-2.714,-2.7193,-2.7227,-2.7287,-2.7309,-2.735,-2.7339,-2.7355,-2.736,-2.7364,-2.7368,-2.7261,-2.7358,-2.7358,-2.7358,-2.7357,-2.7357,0,-2.6909,-2.6932,-2.6973,-2.7021,-2.7057,-2.705,-2.7088,-2.7118,-2.7165,-2.7197,-2.7235,-2.7291,-2.7336,-2.7362,-2.7407,-2.7435,-2.7435,-2.7447,-2.7445,-2.745,-2.7375,-2.7361,-2.7446,-2.7446,-2.7446,-2.7446,-2.7446,-2.7446,-2.6962,-2.7022,-2.7033,-2.7106,-2.7128,-2.718,-2.7202,-2.7231,-2.7257,-2.732,-2.7358,-2.7374,-2.7404,-2.7452,-2.7493,-2.7499,-2.7517,-2.753,-2.7535,-2.7465,-2.7455,-2.7447,-2.7434,-2.7533,-2.7534,-2.7608,-2.7608,-2.7609]}]]